TimeEDT,TemperatureF,Dew PointF,Humidity,Sea Level PressureIn,VisibilityMPH,Wind Direction,Wind SpeedMPH,Gust SpeedMPH,PrecipitationIn,Events,Conditions,WindDirDegrees,DateUTC
12:56 AM,59.0,37.0,44,30.13,10.0,SE,9.2,-,N/A,,Mostly Cloudy,130,2013-05-18 04:56:00
1:56 AM,57.0,34.0,42,30.12,10.0,ESE,6.9,-,N/A,,Mostly Cloudy,120,2013-05-18 05:56:00
2:56 AM,57.0,36.0,45,30.11,10.0,ESE,11.5,-,N/A,,Clear,110,2013-05-18 06:56:00
3:56 AM,54.0,37.9,55,30.11,10.0,East,6.9,-,N/A,,Clear,100,2013-05-18 07:56:00
4:56 AM,53.1,39.0,59,30.11,10.0,East,4.6,-,N/A,,Partly Cloudy,90,2013-05-18 08:56:00
5:56 AM,53.1,39.9,61,30.13,10.0,ENE,3.5,-,N/A,,Mostly Cloudy,60,2013-05-18 09:56:00
6:56 AM,54.0,41.0,62,30.14,10.0,NE,3.5,-,N/A,,Overcast,40,2013-05-18 10:56:00
7:56 AM,55.9,43.0,62,30.13,10.0,Calm,Calm,-,N/A,,Partly Cloudy,0,2013-05-18 11:56:00
8:56 AM,60.1,45.0,57,30.13,10.0,East,4.6,-,N/A,,Clear,90,2013-05-18 12:56:00
9:56 AM,64.9,45.0,48,30.12,10.0,ESE,8.1,-,N/A,,Clear,110,2013-05-18 13:56:00
10:56 AM,69.1,46.0,44,30.11,10.0,ESE,6.9,-,N/A,,Partly Cloudy,120,2013-05-18 14:56:00
11:56 AM,73.0,46.9,39,30.10,10.0,ESE,6.9,-,N/A,,Clear,120,2013-05-18 15:56:00
12:56 PM,75.0,48.9,40,30.09,10.0,East,8.1,-,N/A,,Clear,100,2013-05-18 16:56:00
1:56 PM,77.0,52.0,42,30.07,10.0,Variable,6.9,-,N/A,,Clear,0,2013-05-18 17:56:00
2:56 PM,79.0,55.0,44,30.05,10.0,South,10.4,-,N/A,,Partly Cloudy,180,2013-05-18 18:56:00
3:56 PM,79.0,54.0,42,30.05,10.0,Variable,3.5,16.1,N/A,,Clear,0,2013-05-18 19:56:00
4:56 PM,79.0,53.1,40,30.04,10.0,South,5.8,-,N/A,,Clear,170,2013-05-18 20:56:00
5:56 PM,79.0,53.1,40,30.03,10.0,South,8.1,-,N/A,,Clear,170,2013-05-18 21:56:00
6:56 PM,75.9,53.1,45,30.03,10.0,SE,13.8,-,N/A,,Clear,130,2013-05-18 22:56:00
7:56 PM,71.1,46.9,42,30.04,10.0,ESE,12.7,-,N/A,,Clear,120,2013-05-18 23:56:00
8:56 PM,66.9,44.1,44,30.04,10.0,SE,9.2,-,N/A,,Clear,130,2013-05-19 00:56:00
9:56 PM,64.9,41.0,42,30.05,10.0,SE,9.2,-,N/A,,Clear,130,2013-05-19 01:56:00
10:56 PM,61.0,42.1,50,30.05,10.0,SE,6.9,-,N/A,,Clear,130,2013-05-19 02:56:00
11:56 PM,57.9,42.1,56,30.05,10.0,ESE,4.6,-,N/A,,Clear,120,2013-05-19 03:56:00